Theta_e
286 287 287 287 288 286 285 285 286 285 285 283 284 283 282 281 281 281 280 279 279 278 278 278 277 278 277 276 277 277 276 275 271 274 275 276 275 276 277 277 278 277 278
287 286 286 287 285 285 286 286 285 285 285 284 284 283 282 282 281 281 280 279 278 277 277 277 276 277 276 276 276 275 275 275 273 271 274 274 274 275 276 275 277 278 278
285 284 284 284 283 286 286 285 284 285 284 284 283 282 282 282 281 281 280 279 278 278 277 277 276 276 275 275 274 274 274 275 273 271 271 274 274 275 275 276 276 277 278
284 284 284 284 285 286 286 285 284 285 283 283 283 282 282 281 281 280 279 278 278 277 277 277 276 275 275 274 274 273 273 272 273 271 272 272 273 275 276 274 274 276 276
285 285 284 285 284 284 285 285 283 283 283 283 282 282 281 280 280 279 279 278 277 276 276 276 275 275 278 276 274 273 273 271 272 271 271 272 273 274 273 275 273 274 275
284 284 285 286 283 283 284 283 282 282 282 282 281 281 279 280 284 284 280 278 277 275 274 275 275 274 277 279 279 278 276 270 267 268 271 272 273 274 275 273 273 272 271
284 284 283 284 284 283 283 282 282 281 282 281 281 280 279 280 284 285 284 278 276 276 275 274 274 274 274 277 280 281 281 281 279 274 269 273 273 274 274 274 274 274 274
283 283 282 282 283 282 281 281 281 281 280 280 280 280 279 279 284 286 284 278 277 276 275 274 274 274 275 275 275 275 275 275 276 276 275 274 275 276 277 277 275 273 272
282 281 280 280 280 280 280 280 280 280 279 280 280 279 279 278 284 286 283 277 276 275 275 275 275 275 277 279 274 272 273 274 278 280 280 280 280 280 279 273 268 267 266
282 281 278 277 276 278 278 278 279 280 279 279 278 279 278 277 283 286 282 276 274 274 275 276 277 275 279 280 274 272 272 273 274 273 274 275 275 273 275 273 270 265 266
279 280 280 278 275 276 277 278 278 278 278 277 276 277 277 277 280 286 283 276 275 274 274 274 275 279 279 280 280 275 273 275 274 273 270 270 270 270 271 272 272 270 267
276 278 280 280 277 277 276 276 276 275 275 274 274 273 274 276 280 286 284 280 279 275 274 274 275 279 280 280 280 278 279 276 269 265 265 266 267 268 270 271 272 272 272
274 274 275 278 278 276 275 275 274 274 274 272 272 272 272 274 277 284 285 281 280 275 275 276 277 280 281 280 280 278 273 270 267 263 264 266 268 269 270 270 270 270 270
269 270 272 273 277 276 275 275 274 273 273 273 272 272 271 273 275 280 282 280 279 276 277 276 277 278 278 273 274 274 269 268 267 266 266 267 268 267 267 268 267 267 266
266 267 268 270 274 276 275 275 275 276 276 274 274 274 271 271 273 279 281 278 277 274 275 274 273 270 269 268 268 267 267 267 266 266 266 265 266 266 266 267 267 265 264
263 264 266 268 270 274 275 275 279 280 279 280 280 277 275 277 278 280 282 282 280 279 271 269 267 267 267 266 266 265 266 265 265 265 265 264 264 264 264 265 265 264 263
261 262 263 265 267 269 273 273 272 275 281 281 281 281 280 277 279 280 282 283 281 277 269 268 267 266 266 266 265 265 264 264 265 264 263 263 263 263 262 263 263 264 263
260 261 262 263 265 267 270 273 273 272 272 275 279 281 281 279 279 280 281 282 277 273 268 267 266 265 265 264 263 263 263 262 262 262 262 261 260 260 260 261 262 262 263
259 260 261 262 264 265 267 272 271 271 272 273 274 278 279 280 279 280 281 277 275 265 266 265 264 264 263 262 262 261 260 259 259 259 258 258 259 259 259 261 262 263 264
259 260 261 261 262 263 266 271 270 270 270 271 272 274 275 275 275 276 278 276 269 267 265 263 262 262 261 260 259 258 256 256 256 256 257 258 259 258 260 260 261 262 263
260 260 261 261 262 263 266 269 269 269 269 270 271 274 276 274 274 275 274 267 266 264 263 262 260 259 258 256 255 255 255 256 255 255 255 256 257 257 259 261 261 264 263
261 260 261 262 262 264 267 269 269 268 269 270 271 273 278 274 271 265 265 264 263 262 262 260 259 257 256 255 255 254 255 254 253 253 254 256 257 257 258 261 263 263 262
263 263 262 262 263 265 267 267 268 269 269 270 270 272 270 264 263 262 259 259 258 257 257 258 256 254 253 253 253 254 254 253 253 252 252 254 255 257 259 261 262 261 260
265 263 262 263 266 266 265 265 266 266 267 268 265 263 262 261 260 259 258 257 256 255 255 254 255 255 254 253 252 251 251 251 251 250 252 254 255 257 260 262 260 260 259
263 264 265 265 265 264 264 263 263 265 264 263 261 260 259 259 258 257 257 257 255 254 254 254 253 253 253 254 252 252 252 256 254 254 255 255 257 260 261 260 258 259 258
261 262 262 262 262 262 262 262 262 261 260 260 260 260 259 259 258 257 256 256 255 255 254 254 253 253 253 253 253 255 257 260 259 259 259 262 265 262 260 257 256 257 257
Wind_Speed
8 9 10 11 12 9 10 10 12 11 15 17 19 18 18 17 16 15 14 14 14 11 9 10 9 8 6 5 5 4 4 4 4 2 3 1 5 6 8 7 8 10 10
6 6 9 8 8 10 13 14 12 13 12 13 15 17 17 18 18 18 17 15 16 15 13 12 11 8 8 7 6 7 6 6 4 3 3 3 5 6 9 10 8 8 8
7 7 8 8 8 14 13 12 13 14 14 14 15 17 18 19 19 19 18 16 16 15 15 14 12 12 10 7 7 6 5 5 5 4 3 3 5 6 7 7 6 6 5
9 8 10 10 14 14 13 12 13 14 14 15 15 15 16 16 17 17 17 16 15 13 13 13 13 14 12 11 9 8 7 6 5 4 4 6 5 5 5 5 6 3 7
18 14 12 11 10 9 10 10 10 13 13 14 14 13 13 14 13 17 17 16 16 14 13 13 13 13 19 15 9 9 9 6 4 4 5 4 4 4 6 6 8 8 8
15 16 18 14 7 10 10 10 11 13 14 14 15 17 16 13 26 30 22 16 16 16 15 13 11 14 16 20 19 17 12 8 6 4 4 5 5 5 5 7 8 9 7
14 13 14 14 13 11 10 10 13 14 12 14 15 16 19 17 29 32 31 16 17 16 16 14 11 9 13 12 19 19 18 18 15 8 6 5 5 6 8 9 9 9 10
13 15 15 16 15 9 7 10 10 10 13 12 13 14 15 15 29 30 30 16 16 17 17 17 16 16 15 14 11 9 8 7 7 5 4 6 7 8 8 8 9 9 9
12 14 14 13 14 10 7 7 8 8 10 12 10 13 15 12 28 29 27 14 14 14 13 15 15 15 22 23 12 11 9 9 12 14 13 13 12 13 11 6 6 7 8
15 16 12 10 9 10 8 6 4 5 8 8 9 11 12 11 26 29 24 10 12 11 11 12 21 16 26 26 13 12 11 8 7 4 4 6 4 6 12 6 2 5 6
19 18 15 10 8 7 5 3 4 6 4 7 8 7 9 12 19 32 32 12 12 12 12 11 10 24 26 26 21 11 9 8 9 5 2 2 3 3 4 5 6 7 7
17 18 15 13 7 5 6 3 3 5 7 6 7 7 8 11 17 29 33 21 20 13 13 11 11 26 24 24 18 18 17 10 5 3 1 1 3 2 4 5 9 9 10
17 18 18 16 10 6 7 5 4 5 6 6 6 7 7 8 9 27 31 26 23 10 8 15 23 27 26 19 20 17 8 5 4 2 3 2 3 4 7 7 10 12 13
18 18 16 16 14 9 7 6 6 7 7 7 9 9 7 8 10 14 15 16 22 14 17 11 15 16 14 10 8 9 5 5 4 3 2 2 3 4 4 6 8 9 11
18 17 16 14 15 11 10 8 9 10 11 9 9 9 11 12 14 18 17 13 13 15 15 13 9 6 7 6 5 5 4 4 3 3 1 2 5 4 5 5 7 8 11
18 14 12 12 12 12 9 8 20 21 20 24 20 14 10 15 22 30 30 26 28 31 11 11 10 10 8 8 7 6 4 5 3 2 1 2 4 5 6 6 7 8 11
17 17 13 14 12 12 11 9 9 10 23 23 24 22 23 17 23 30 29 29 30 28 10 11 10 9 9 7 6 6 5 4 3 1 1 3 4 6 7 7 7 9 10
17 21 14 13 13 12 12 11 8 8 7 9 19 19 23 21 23 29 31 28 17 17 10 12 11 10 8 8 7 6 6 5 3 2 1 2 4 6 6 7 8 10 11
15 13 13 12 12 14 13 11 9 8 8 8 5 14 16 22 23 30 35 15 15 12 11 10 11 10 8 7 6 5 5 4 3 2 1 3 5 5 6 8 9 13 15
15 21 18 13 12 12 12 11 8 8 8 7 8 9 9 10 11 14 16 11 9 9 9 10 9 9 8 7 7 5 4 3 2 2 2 5 6 5 7 8 9 11 11
13 12 16 12 12 12 12 9 8 7 8 7 7 8 16 12 10 11 8 8 9 8 9 9 8 7 6 6 6 5 4 4 3 3 4 5 5 6 7 8 10 10 12
13 13 12 11 10 11 12 8 7 7 7 7 6 7 24 9 7 8 9 8 8 7 6 8 7 6 6 6 6 5 4 4 3 4 5 5 5 6 7 9 10 10 11
13 14 10 10 10 12 7 6 6 7 6 7 6 8 5 8 8 9 9 8 8 8 6 6 6 5 3 3 3 4 5 4 5 4 4 5 5 7 8 9 9 10 11
12 6 7 8 8 5 3 3 3 5 6 7 8 8 8 8 10 10 9 9 9 7 5 5 3 5 5 4 3 4 3 3 4 5 7 6 7 9 8 7 8 10 11
8 5 3 2 3 4 5 6 6 6 7 8 8 8 8 9 10 10 9 9 8 6 5 5 3 4 5 6 6 6 7 9 6 6 5 9 12 12 7 6 7 9 12
8 8 7 7 7 6 6 6 7 7 8 7 8 8 9 9 9 10 9 8 6 5 5 3 4 5 5 5 6 6 8 8 8 12 10 9 8 5 5 5 8 8 11
Wind_Direction
224 208 210 212 208 185 194 201 192 185 183 179 179 180 184 183 186 188 186 178 184 176 172 172 176 162 166 161 151 153 169 156 183 287 273 359 338 321 305 293 295 296 299
240 247 246 225 200 202 207 198 190 188 188 188 185 182 183 188 185 188 187 183 184 181 177 171 175 166 167 166 170 178 178 179 156 194 232 234 231 249 254 257 263 253 261
257 231 222 224 216 221 218 207 188 186 185 189 187 188 187 188 189 192 188 185 188 184 178 177 171 167 173 172 172 179 179 186 180 183 220 216 245 243 255 252 253 258 261
300 259 245 220 220 218 215 205 195 195 186 190 195 194 193 190 193 190 187 182 184 181 175 174 168 175 175 171 180 182 177 193 191 191 233 242 238 249 252 276 298 289 305
329 319 273 251 236 223 217 208 191 192 197 190 187 194 187 193 192 187 188 181 177 171 172 172 174 175 178 177 173 182 176 182 181 193 233 241 272 299 300 307 307 311 310
326 322 312 293 249 229 222 205 191 198 198 185 191 189 187 195 197 193 184 178 177 174 174 175 170 163 184 188 191 192 181 174 184 178 222 251 279 292 303 304 311 327 330
332 327 325 307 282 252 231 204 204 196 192 200 199 196 194 199 198 194 189 180 175 178 174 169 166 175 174 185 195 195 204 208 208 195 194 214 265 274 283 295 300 303 298
323 336 339 331 311 277 230 224 217 192 195 196 202 207 209 190 201 197 189 181 177 175 173 171 172 172 179 178 177 185 190 193 222 232 229 244 242 246 255 293 307 309 293
323 329 334 331 319 296 264 246 235 211 195 202 196 199 206 193 201 194 184 183 176 170 169 171 170 167 180 183 176 185 195 204 222 230 243 255 279 291 305 321 300 314 306
323 325 319 318 313 297 282 266 251 238 232 202 196 199 195 183 198 193 179 175 172 163 163 169 173 170 180 182 180 182 194 196 195 200 233 254 290 303 303 286 273 270 289
320 312 312 312 299 286 280 274 234 213 217 220 181 190 187 184 198 190 181 181 170 165 170 170 180 181 184 191 187 186 190 177 202 172 210 290 303 295 290 285 273 258 266
305 306 307 301 294 283 259 231 255 217 181 194 185 175 185 189 204 194 184 189 178 166 174 168 170 185 187 192 192 190 191 172 138 157 164 311 284 277 276 286 275 270 261
309 307 307 305 291 262 247 222 191 223 207 182 187 193 188 183 195 196 191 181 179 166 169 169 173 183 187 190 189 190 156 143 144 147 165 217 260 273 296 289 283 279 272
302 301 306 306 296 263 236 219 219 203 207 216 191 201 191 195 188 188 186 174 181 163 157 167 178 182 178 135 157 173 144 155 163 168 183 233 278 283 282 290 288 294 290
298 297 297 293 288 271 241 230 220 226 203 212 216 200 191 192 197 197 189 168 170 159 149 151 166 153 154 150 163 151 146 155 160 162 175 252 279 281 284 289 288 292 285
291 290 285 288 284 283 260 249 242 236 228 226 218 202 209 209 196 196 192 177 170 162 153 151 151 156 176 173 157 152 162 152 150 145 181 255 276 290 286 290 291 287 285
276 280 283 282 279 279 272 246 256 244 238 235 234 219 212 202 197 198 198 187 174 159 174 159 157 163 161 152 161 158 155 138 127 164 220 279 283 279 285 289 294 286 286
271 272 272 272 273 273 273 260 236 238 231 224 229 229 214 205 200 193 195 184 174 170 171 158 153 156 161 154 161 153 148 143 148 170 253 268 259 266 280 289 289 290 291
273 270 269 270 270 271 278 265 228 229 227 228 197 222 208 205 203 198 193 189 177 161 161 159 151 147 156 150 148 144 144 135 159 156 196 252 259 248 265 277 282 291 286
271 265 259 259 260 263 263 246 223 213 218 211 204 206 166 179 199 196 191 184 157 162 156 146 142 139 149 150 141 143 133 145 165 215 214 248 259 253 267 281 285 287 300
268 266 257 253 254 258 266 233 216 209 211 207 205 199 178 179 190 191 165 138 141 148 145 137 137 139 141 137 129 145 157 165 176 198 226 244 249 263 271 273 277 288 304
263 257 251 248 245 252 248 212 209 205 204 203 193 185 185 184 158 125 118 121 120 119 118 124 129 140 145 146 154 161 164 187 174 204 234 249 256 266 269 270 279 300 307
264 248 231 237 238 249 216 200 199 201 194 183 171 170 130 115 119 118 113 108 102 100 87 101 111 123 132 139 158 165 171 189 198 189 220 256 264 265 261 269 289 302 309
290 211 221 230 235 200 168 152 148 124 131 142 102 102 110 114 110 106 105 104 97 95 92 100 119 148 159 167 182 195 194 214 194 201 217 247 259 264 265 278 289 298 302
347 18 51 72 95 95 95 88 99 102 85 99 101 100 101 103 103 102 102 101 106 115 128 142 146 169 187 193 203 210 222 242 233 223 231 237 247 259 262 272 282 297 296
8 23 34 44 52 61 73 81 78 82 88 91 97 100 105 106 104 108 109 111 117 120 126 141 179 196 210 224 232 243 252 252 245 233 232 240 263 274 276 258 277 292 293